Terminal Aerodrome Forecast
Issued by NWS

Home | Current Version | Previous Version | Text Only | Print | Product List | Glossary On
Versions: 1 2 3 4 5 6 7 8 9 10 11 12 13 14 15 16 17
000
FTUS44 KMAF 210526
TAFPEQ
TAF
KPEQ 210526Z 2106/2206 26011KT P6SM BKN100
     FM211800 26030G42KT 6SM BLDU BKN050=

USA.gov is the U.S. government's official web portal to all federal, state and local government web resources and services.